START_TIME,STEP,MOV.,M34,t_acc.,L5,t_acc.,L18,t_acc.,L14,t_acc.
1979-07-16 18:00:24.750 ,0,1,0.,12.0,0.,12.0,0.,12.0,0.,12.0
1979-07-16 18:00:36.750 ,0,1,0.,12.0,0.,12.0,0.,12.0,0.,12.0
1979-07-16 18:00:48.750 ,3,1,0.,12.0,0.,12.0,0.,12.0,0.,12.0
1979-07-16 18:01:00.750 ,3,1,0.,12.0,0.,12.0,0.,12.0,0.,12.0
1979-07-16 18:01:12.750 ,7,1,0.,12.0,0.,12.0,0.,12.0,0.,12.0
1979-07-16 18:01:24.750 ,7,1,0.,12.0,0.,12.0,0.,12.0,0.,12.0
1979-07-16 18:01:36.750 ,4,1,0.,12.0,0.,12.0,0.,12.0,0.,12.0
1979-07-16 18:01:48.750 ,4,1,0.,12.0,0.,12.0,0.,12.0,0.,12.0
1979-07-16 18:02:00.750 ,0,1,0.,12.0,0.,12.0,0.,12.0,0.,12.0
1979-07-16 18:02:12.750 ,0,1,0.,12.0,0.,12.0,0.,12.0,0.,12.0
1979-07-16 18:02:24.750 ,3,1,0.,12.0,0.,12.0,0.,12.0,0.,12.0
1979-07-16 18:02:36.750 ,3,1,0.,12.0,0.,12.0,0.,12.0,0.,12.0
1979-07-16 18:02:48.750 ,7,1,0.,12.0,0.,12.0,0.,12.0,0.,12.0
1979-07-16 18:03:00.750 ,7,1,0.,12.0,0.,12.0,0.,12.0,0.,12.0
1979-07-16 18:04:48.750 ,0,0,0.,12.0,0.,12.0,0.,12.0,0.,12.0
1979-07-16 18:05:00.750 ,0,0,0.,12.0,0.,12.0,0.,12.0,0.,12.0
1979-07-16 18:05:12.750 ,0,1,0.,12.0,0.,12.0,0.,12.0,0.,12.0
1979-07-16 18:05:24.750 ,0,1,0.,12.0,0.,12.0,0.,12.0,0.,12.0
1979-07-16 18:05:36.750 ,0,0,0.,12.0,0.,12.0,0.,12.0,0.,12.0
1979-07-16 18:05:48.750 ,0,0,0.,12.0,0.,12.0,0.,12.0,0.,12.0
1979-07-16 18:06:00.750 ,0,0,0.,12.0,0.,12.0,0.,12.0,0.,12.0
1979-07-16 18:06:12.750 ,0,0,0.,12.0,0.,12.0,0.,12.0,0.,12.0
1979-07-16 18:06:24.750 ,5,1,0.,12.0,0.,12.0,0.,12.0,0.,12.0
1979-07-16 18:06:36.750 ,5,1,0.,12.0,0.,12.0,0.,12.0,0.,12.0
1979-07-16 18:06:48.750 ,0,0,0.,12.0,0.,12.0,0.,12.0,0.,12.0
1979-07-16 18:07:00.750 ,0,0,0.,12.0,0.,12.0,0.,12.0,0.,12.0
1979-07-16 18:07:06.750 ,0,0,,0,,0,,0,,0
1979-07-16 18:07:18.750 ,0,0,,0,,0,,0,,0
1979-07-16 18:07:12.750 ,4,1,0.,12.0,0.,12.0,0.,12.0,0.,12.0
1979-07-16 18:07:24.750 ,4,1,0.,12.0,0.,12.0,0.,12.0,0.,12.0
1979-07-16 18:07:36.750 ,4,0,0.,12.0,0.,12.0,0.,12.0,0.,12.0
1979-07-16 18:07:48.750 ,4,0,0.,12.0,0.,12.0,0.,12.0,0.,12.0
1979-07-16 18:08:00.750 ,3,1,0.,12.0,0.,12.0,0.,12.0,0.,12.0
1979-07-16 18:08:12.750 ,3,1,0.,12.0,0.,12.0,0.,12.0,0.,12.0
1979-07-16 18:08:24.750 ,3,0,0.,12.0,0.,12.0,0.,12.0,0.,12.0
1979-07-16 18:08:36.750 ,3,0,1.,12.0,0.,12.0,0.,12.0,0.,12.0
1979-07-16 18:08:48.750 ,2,1,0.,12.0,0.,12.0,0.,12.0,0.,12.0
1979-07-16 18:09:00.750 ,2,1,0.,12.0,0.,12.0,0.,12.0,0.,12.0
1979-07-16 18:09:12.750 ,2,0,0.,12.0,0.,12.0,0.,12.0,0.,12.0
1979-07-16 18:09:24.750 ,2,0,0.,12.0,0.,12.0,0.,12.0,0.,12.0
1979-07-16 18:09:36.750 ,1,1,0.,12.0,0.,12.0,0.,12.0,0.,12.0
1979-07-16 18:09:48.750 ,1,1,0.,12.0,0.,12.0,0.,12.0,0.,12.0
1979-07-16 18:10:00.750 ,1,0,0.,12.0,0.,12.0,0.,12.0,0.,12.0
1979-07-16 18:10:12.750 ,1,0,0.,12.0,0.,12.0,0.,12.0,0.,12.0
1979-07-16 18:10:24.750 ,0,1,0.,12.0,0.,12.0,0.,12.0,0.,12.0
1979-07-16 18:10:36.750 ,0,1,0.,12.0,0.,12.0,0.,12.0,0.,12.0
1979-07-16 18:10:48.750 ,0,0,0.,12.0,0.,12.0,0.,12.0,0.,12.0
1979-07-16 18:11:00.750 ,0,0,0.,12.0,0.,12.0,0.,12.0,0.,12.0
1979-07-16 18:11:12.750 ,0,1,0.,12.0,0.,12.0,0.,12.0,0.,12.0
1979-07-16 18:11:24.750 ,0,1,0.,12.0,0.,12.0,0.,12.0,0.,12.0
1979-07-16 18:11:36.750 ,0,0,0.,12.0,0.,12.0,0.,12.0,0.,12.0
1979-07-16 18:11:48.750 ,0,0,0.,12.0,0.,12.0,0.,12.0,0.,12.0
1979-07-16 18:12:00.750 ,1,1,0.,12.0,0.,12.0,0.,12.0,0.,12.0
1979-07-16 18:12:12.750 ,1,1,0.,12.0,0.,12.0,0.,12.0,0.,12.0
1979-07-16 18:12:24.750 ,1,0,0.,12.0,0.,12.0,0.,12.0,0.,12.0
1979-07-16 18:12:36.750 ,1,0,0.,12.0,0.,12.0,0.,12.0,0.,12.0
1979-07-16 18:12:48.750 ,2,1,0.,12.0,0.,12.0,0.,12.0,0.,12.0
1979-07-16 18:13:00.750 ,2,1,0.,12.0,0.,12.0,0.,12.0,0.,12.0
1979-07-16 18:13:12.750 ,2,0,0.,12.0,0.,12.0,0.,12.0,0.,12.0
1979-07-16 18:13:24.750 ,2,0,0.,12.0,0.,12.0,0.,12.0,0.,12.0
1979-07-16 18:13:36.750 ,3,1,0.,12.0,0.,12.0,0.,12.0,0.,12.0
1979-07-16 18:13:48.750 ,3,1,0.,12.0,0.,12.0,0.,12.0,0.,12.0
1979-07-16 18:14:00.750 ,3,0,0.,12.0,0.,12.0,0.,12.0,0.,12.0
1979-07-16 18:14:12.750 ,3,0,0.,12.0,0.,12.0,0.,12.0,0.,12.0
1979-07-16 18:14:24.750 ,4,1,0.,12.0,0.,12.0,0.,12.0,0.,12.0
1979-07-16 18:14:36.750 ,4,1,0.,12.0,0.,12.0,0.,12.0,0.,12.0
1979-07-16 18:14:48.750 ,4,0,0.,12.0,0.,12.0,0.,12.0,0.,12.0
1979-07-16 18:15:00.750 ,4,0,0.,12.0,0.,12.0,0.,12.0,0.,12.0
1979-07-16 18:15:12.750 ,5,1,0.,12.0,0.,12.0,0.,12.0,0.,12.0
1979-07-16 18:15:24.750 ,5,1,0.,12.0,0.,12.0,0.,12.0,0.,12.0
1979-07-16 18:15:36.750 ,5,0,0.,12.0,0.,12.0,0.,12.0,0.,12.0
1979-07-16 18:15:48.750 ,5,0,0.,12.0,0.,12.0,0.,12.0,0.,12.0
1979-07-16 18:16:00.750 ,6,1,0.,12.0,0.,12.0,0.,12.0,0.,12.0
1979-07-16 18:16:12.750 ,6,1,0.,12.0,0.,12.0,0.,12.0,0.,12.0
1979-07-16 18:16:24.750 ,6,0,0.,12.0,0.,12.0,0.,12.0,0.,12.0
1979-07-16 18:16:36.750 ,6,0,0.,12.0,0.,12.0,0.,12.0,0.,12.0
1979-07-16 18:16:48.750 ,7,1,0.,12.0,0.,12.0,0.,12.0,0.,12.0
1979-07-16 18:17:00.750 ,7,1,0.,12.0,0.,12.0,0.,12.0,0.,12.0
1979-07-16 18:17:12.750 ,7,0,0.,12.0,0.,12.0,0.,12.0,0.,12.0
1979-07-16 18:17:24.750 ,7,0,0.,12.0,0.,12.0,0.,12.0,0.,12.0
1979-07-16 18:17:36.750 ,7,1,0.,12.0,0.,12.0,0.,12.0,0.,12.0
1979-07-16 18:17:48.750 ,7,1,0.,12.0,0.,12.0,0.,12.0,0.,12.0
1979-07-16 18:18:00.750 ,7,0,0.,12.0,0.,12.0,0.,12.0,0.,12.0
1979-07-16 18:18:12.750 ,7,0,0.,12.0,0.,12.0,0.,12.0,0.,12.0
1979-07-16 18:18:24.750 ,6,1,0.,12.0,0.,12.0,0.,12.0,0.,12.0
1979-07-16 18:18:36.750 ,6,1,0.,12.0,0.,12.0,0.,12.0,0.,12.0
1979-07-16 18:18:48.750 ,6,0,0.,12.0,0.,12.0,0.,12.0,0.,12.0
1979-07-16 18:19:00.750 ,6,0,0.,12.0,0.,12.0,0.,12.0,0.,12.0
1979-07-16 18:19:12.750 ,5,1,0.,12.0,0.,12.0,0.,12.0,0.,12.0
1979-07-16 18:19:24.750 ,5,1,0.,12.0,0.,12.0,0.,12.0,0.,12.0
1979-07-16 18:19:36.750 ,5,0,0.,12.0,0.,12.0,0.,12.0,0.,12.0
1979-07-16 18:19:48.750 ,5,0,0.,12.0,0.,12.0,0.,12.0,0.,12.0
1979-07-16 18:20:00.750 ,4,1,0.,12.0,0.,12.0,0.,12.0,0.,12.0
1979-07-16 18:20:12.750 ,4,1,0.,12.0,0.,12.0,0.,12.0,0.,12.0
1979-07-16 18:20:24.750 ,4,0,0.,12.0,0.,12.0,0.,12.0,0.,12.0
1979-07-16 18:20:36.750 ,4,0,0.,12.0,0.,12.0,0.,12.0,0.,12.0
1979-07-16 18:20:48.750 ,3,1,0.,12.0,0.,12.0,0.,12.0,0.,12.0
1979-07-16 18:21:00.750 ,3,1,0.,12.0,0.,12.0,0.,12.0,0.,12.0
1979-07-16 18:21:12.750 ,3,0,0.,12.0,0.,12.0,0.,12.0,0.,12.0
1979-07-16 18:21:24.750 ,3,0,0.,12.0,0.,12.0,0.,12.0,0.,12.0
1979-07-16 18:21:36.750 ,2,1,0.,12.0,0.,12.0,0.,12.0,0.,12.0
1979-07-16 18:21:48.750 ,2,1,0.,12.0,0.,12.0,0.,12.0,0.,12.0
1979-07-16 18:22:00.750 ,2,0,0.,12.0,0.,12.0,0.,12.0,0.,12.0
1979-07-16 18:22:12.750 ,2,0,0.,12.0,0.,12.0,0.,12.0,0.,12.0
1979-07-16 18:22:24.750 ,1,1,0.,12.0,0.,12.0,0.,12.0,0.,12.0
1979-07-16 18:22:36.750 ,1,1,0.,12.0,0.,12.0,0.,12.0,0.,12.0
1979-07-16 18:22:48.750 ,1,0,0.,12.0,0.,12.0,0.,12.0,0.,12.0
1979-07-16 18:23:00.750 ,1,0,0.,12.0,0.,12.0,0.,12.0,0.,12.0
1979-07-16 18:23:12.750 ,0,1,0.,12.0,0.,12.0,0.,12.0,0.,12.0
1979-07-16 18:23:24.750 ,0,1,0.,12.0,0.,12.0,0.,12.0,0.,12.0
1979-07-16 18:23:36.750 ,0,0,0.,12.0,0.,12.0,0.,12.0,0.,12.0
1979-07-16 18:23:48.750 ,0,0,0.,12.0,0.,12.0,0.,12.0,0.,12.0
1979-07-16 18:24:00.750 ,0,1,0.,12.0,0.,12.0,0.,12.0,0.,12.0
1979-07-16 18:24:12.750 ,0,1,0.,12.0,0.,12.0,0.,12.0,0.,12.0
1979-07-16 18:24:24.750 ,0,0,0.,12.0,0.,12.0,0.,12.0,0.,12.0
1979-07-16 18:24:36.750 ,0,0,0.,12.0,0.,12.0,0.,12.0,0.,12.0
1979-07-16 18:24:48.750 ,1,1,0.,12.0,0.,12.0,0.,12.0,0.,12.0
1979-07-16 18:25:00.750 ,1,1,0.,12.0,0.,12.0,0.,12.0,0.,12.0
1979-07-16 18:25:12.750 ,1,0,0.,12.0,0.,12.0,0.,12.0,0.,12.0
1979-07-16 18:25:24.750 ,1,0,0.,12.0,0.,12.0,0.,12.0,0.,12.0
1979-07-16 18:25:36.750 ,2,1,0.,12.0,0.,12.0,0.,12.0,0.,12.0
1979-07-16 18:25:48.750 ,2,1,0.,12.0,0.,12.0,0.,12.0,0.,12.0
1979-07-16 18:26:00.750 ,2,0,0.,12.0,0.,12.0,0.,12.0,0.,12.0
1979-07-16 18:26:12.750 ,2,0,0.,12.0,0.,12.0,0.,12.0,0.,12.0
1979-07-16 18:26:24.750 ,3,1,0.,12.0,0.,12.0,0.,12.0,0.,12.0
1979-07-16 18:26:36.750 ,3,1,0.,12.0,0.,12.0,0.,12.0,0.,12.0
1979-07-16 18:26:48.750 ,3,0,0.,12.0,0.,12.0,0.,12.0,0.,12.0
1979-07-16 18:27:00.750 ,3,0,0.,12.0,0.,12.0,0.,12.0,0.,12.0
1979-07-16 18:27:12.750 ,4,1,0.,12.0,0.,12.0,0.,12.0,0.,12.0
1979-07-16 18:27:24.750 ,4,1,0.,12.0,0.,12.0,0.,12.0,0.,12.0
1979-07-16 18:27:36.750 ,4,0,0.,12.0,0.,12.0,0.,12.0,0.,12.0
1979-07-16 18:27:48.750 ,4,0,0.,12.0,0.,12.0,0.,12.0,0.,12.0
1979-07-16 18:28:00.750 ,5,1,0.,12.0,0.,12.0,0.,12.0,0.,12.0
1979-07-16 18:28:12.750 ,5,1,0.,12.0,0.,12.0,0.,12.0,0.,12.0
1979-07-16 18:28:24.750 ,5,0,0.,12.0,0.,12.0,0.,12.0,0.,12.0
1979-07-16 18:28:36.750 ,5,0,0.,12.0,0.,12.0,0.,12.0,0.,12.0
1979-07-16 18:28:48.750 ,6,1,0.,12.0,0.,12.0,0.,12.0,0.,12.0
1979-07-16 18:29:00.750 ,6,1,0.,12.0,0.,12.0,0.,12.0,0.,12.0
1979-07-16 18:29:12.750 ,6,0,0.,12.0,0.,12.0,0.,12.0,0.,12.0
1979-07-16 18:29:24.750 ,6,0,0.,12.0,0.,12.0,0.,12.0,0.,12.0
1979-07-16 18:29:36.750 ,7,1,0.,12.0,0.,12.0,0.,12.0,0.,12.0
1979-07-16 18:29:48.750 ,7,1,0.,12.0,0.,12.0,0.,12.0,0.,12.0
1979-07-16 18:30:00.750 ,7,0,0.,12.0,0.,12.0,0.,12.0,0.,12.0
1979-07-16 18:30:12.750 ,7,0,0.,12.0,0.,12.0,0.,12.0,0.,12.0
1979-07-16 18:30:24.750 ,7,1,0.,12.0,0.,12.0,0.,12.0,0.,12.0
1979-07-16 18:30:36.750 ,7,1,0.,12.0,0.,12.0,0.,12.0,0.,12.0
1979-07-16 18:30:48.750 ,7,0,0.,12.0,0.,12.0,0.,12.0,0.,12.0
1979-07-16 18:31:00.750 ,7,0,0.,12.0,0.,12.0,0.,12.0,0.,12.0
1979-07-16 18:32:00.750 ,0,0,0.,12.0,0.,12.0,0.,12.0,0.,12.0
1979-07-16 18:32:12.750 ,0,0,0.,12.0,0.,12.0,0.,12.0,0.,12.0
1979-07-16 18:32:24.750 ,0,0,0.,12.0,0.,12.0,0.,12.0,0.,12.0
1979-07-16 18:32:36.750 ,0,0,0.,12.0,0.,12.0,0.,12.0,0.,12.0
1979-07-16 18:32:48.750 ,4,1,0.,12.0,0.,12.0,0.,12.0,0.,12.0
1979-07-16 18:33:00.750 ,4,1,0.,12.0,0.,12.0,0.,12.0,0.,12.0
1979-07-16 18:33:12.750 ,4,0,0.,12.0,0.,12.0,0.,12.0,0.,12.0
1979-07-16 18:33:24.750 ,4,0,0.,12.0,0.,12.0,0.,12.0,0.,12.0
1979-07-16 18:33:36.750 ,3,1,0.,12.0,0.,12.0,0.,12.0,0.,12.0
1979-07-16 18:33:48.750 ,3,1,0.,12.0,0.,12.0,0.,12.0,0.,12.0
1979-07-16 18:34:00.750 ,3,0,0.,12.0,0.,12.0,0.,12.0,0.,12.0
1979-07-16 18:34:12.750 ,3,0,0.,12.0,0.,12.0,0.,12.0,0.,12.0
1979-07-16 18:34:24.750 ,2,1,0.,12.0,0.,12.0,0.,12.0,0.,12.0
1979-07-16 18:34:36.750 ,2,1,0.,12.0,0.,12.0,0.,12.0,0.,12.0
1979-07-16 18:34:48.750 ,2,0,0.,12.0,0.,12.0,0.,12.0,0.,12.0
1979-07-16 18:35:00.750 ,2,0,0.,12.0,0.,12.0,0.,12.0,0.,12.0
1979-07-16 18:35:12.750 ,1,1,0.,12.0,0.,12.0,0.,12.0,0.,12.0
1979-07-16 18:35:24.750 ,1,1,0.,12.0,0.,12.0,0.,12.0,0.,12.0
1979-07-16 18:35:36.750 ,1,0,0.,12.0,0.,12.0,0.,12.0,0.,12.0
1979-07-16 18:35:48.750 ,1,0,0.,12.0,0.,12.0,0.,12.0,0.,12.0
1979-07-16 18:36:00.750 ,0,1,0.,12.0,0.,12.0,0.,12.0,0.,12.0
1979-07-16 18:36:12.750 ,0,1,0.,12.0,0.,12.0,0.,12.0,0.,12.0
1979-07-16 18:36:24.750 ,0,0,0.,12.0,0.,12.0,0.,12.0,0.,12.0
1979-07-16 18:36:36.750 ,0,0,0.,12.0,0.,12.0,0.,12.0,0.,12.0
1979-07-16 18:36:48.750 ,0,1,0.,12.0,0.,12.0,0.,12.0,0.,12.0
1979-07-16 18:37:00.750 ,0,1,0.,12.0,0.,12.0,0.,12.0,0.,12.0
1979-07-16 18:37:12.750 ,0,0,0.,12.0,0.,12.0,0.,12.0,0.,12.0
1979-07-16 18:37:24.750 ,0,0,0.,12.0,0.,12.0,0.,12.0,0.,12.0
1979-07-16 18:37:36.750 ,1,1,0.,12.0,0.,12.0,0.,12.0,0.,12.0
1979-07-16 18:37:48.750 ,1,1,0.,12.0,0.,12.0,0.,12.0,0.,12.0
1979-07-16 18:38:00.750 ,1,0,0.,12.0,0.,12.0,0.,12.0,0.,12.0
1979-07-16 18:38:12.750 ,1,0,0.,12.0,0.,12.0,0.,12.0,0.,12.0
1979-07-16 18:38:24.750 ,2,1,0.,12.0,0.,12.0,0.,12.0,0.,12.0
1979-07-16 18:38:36.750 ,2,1,0.,12.0,0.,12.0,0.,12.0,0.,12.0
1979-07-16 18:38:48.750 ,2,0,0.,12.0,0.,12.0,0.,12.0,0.,12.0
1979-07-16 18:39:00.750 ,2,0,0.,12.0,0.,12.0,0.,12.0,0.,12.0
1979-07-16 18:39:12.750 ,3,1,0.,12.0,0.,12.0,0.,12.0,0.,12.0
1979-07-16 18:39:24.750 ,3,1,0.,12.0,0.,12.0,0.,12.0,0.,12.0
1979-07-16 18:39:36.750 ,3,0,0.,12.0,0.,12.0,0.,12.0,0.,12.0
1979-07-16 18:39:48.750 ,3,0,0.,12.0,0.,12.0,0.,12.0,0.,12.0
1979-07-16 18:40:00.750 ,4,1,0.,12.0,0.,12.0,0.,12.0,0.,12.0
1979-07-16 18:40:12.750 ,4,1,0.,12.0,0.,12.0,0.,12.0,0.,12.0
1979-07-16 18:40:24.750 ,4,0,0.,12.0,0.,12.0,0.,12.0,0.,12.0
1979-07-16 18:40:36.750 ,4,0,0.,12.0,0.,12.0,0.,12.0,0.,12.0
1979-07-16 18:40:48.750 ,5,1,0.,12.0,0.,12.0,0.,12.0,0.,12.0
1979-07-16 18:41:00.750 ,5,1,0.,12.0,0.,12.0,0.,12.0,0.,12.0
1979-07-16 18:41:12.750 ,5,0,0.,12.0,0.,12.0,0.,12.0,0.,12.0
1979-07-16 18:41:24.750 ,5,0,0.,12.0,0.,12.0,0.,12.0,0.,12.0
1979-07-16 18:41:36.750 ,6,1,0.,12.0,0.,12.0,0.,12.0,0.,12.0
1979-07-16 18:41:48.750 ,6,1,0.,12.0,0.,12.0,0.,12.0,0.,12.0
1979-07-16 18:42:00.750 ,6,0,0.,12.0,0.,12.0,0.,12.0,0.,12.0
1979-07-16 18:42:12.750 ,6,0,0.,12.0,0.,12.0,0.,12.0,0.,12.0
1979-07-16 18:42:24.750 ,7,0,0.,12.0,0.,12.0,0.,12.0,0.,12.0
1979-07-16 18:42:36.750 ,7,0,0.,12.0,0.,12.0,0.,12.0,0.,12.0
1979-07-16 18:42:48.750 ,7,0,0.,12.0,0.,12.0,0.,12.0,0.,12.0
1979-07-16 18:43:00.750 ,7,0,0.,12.0,0.,12.0,0.,12.0,0.,12.0
1979-07-16 18:43:12.750 ,4,1,0.,12.0,0.,12.0,0.,12.0,0.,12.0
1979-07-16 18:43:24.750 ,4,1,0.,12.0,0.,12.0,0.,12.0,0.,12.0
1979-07-16 18:43:36.750 ,0,1,0.,12.0,0.,12.0,0.,12.0,0.,12.0
1979-07-16 18:43:48.750 ,0,1,0.,12.0,0.,12.0,0.,12.0,0.,12.0
1979-07-16 18:44:00.750 ,3,1,0.,12.0,0.,12.0,0.,12.0,0.,12.0
1979-07-16 18:44:12.750 ,3,1,0.,12.0,0.,12.0,0.,12.0,0.,12.0
1979-07-16 18:44:24.750 ,7,1,0.,12.0,0.,12.0,0.,12.0,0.,12.0
1979-07-16 18:44:36.750 ,7,1,0.,12.0,0.,12.0,0.,12.0,0.,12.0
1979-07-16 18:44:48.750 ,4,1,0.,12.0,0.,12.0,0.,12.0,0.,12.0
1979-07-16 18:45:00.750 ,4,1,0.,12.0,0.,12.0,0.,12.0,0.,12.0
1979-07-16 18:45:12.750 ,0,1,0.,12.0,0.,12.0,0.,12.0,0.,12.0
1979-07-16 18:45:24.750 ,0,1,0.,12.0,0.,12.0,0.,12.0,0.,12.0
1979-07-16 18:45:36.750 ,3,1,0.,12.0,0.,12.0,0.,12.0,0.,12.0
1979-07-16 18:45:48.750 ,3,1,0.,12.0,0.,12.0,0.,12.0,0.,12.0
1979-07-16 18:46:00.750 ,7,1,0.,12.0,0.,12.0,0.,12.0,0.,12.0
1979-07-16 18:46:12.750 ,7,1,0.,12.0,0.,12.0,0.,12.0,0.,12.0
1979-07-16 18:46:24.750 ,4,1,0.,12.0,0.,12.0,0.,12.0,0.,12.0
1979-07-16 18:46:36.750 ,4,1,0.,12.0,0.,12.0,0.,12.0,0.,12.0
1979-07-16 18:46:48.750 ,0,1,0.,12.0,0.,12.0,0.,12.0,0.,12.0
1979-07-16 18:47:00.750 ,0,1,0.,12.0,0.,12.0,0.,12.0,0.,12.0
1979-07-16 18:47:12.750 ,3,1,0.,12.0,0.,12.0,0.,12.0,0.,12.0
1979-07-16 18:47:24.750 ,3,1,0.,12.0,0.,12.0,0.,12.0,0.,12.0
1979-07-16 18:47:36.750 ,7,1,0.,12.0,0.,12.0,0.,12.0,0.,12.0
1979-07-16 18:47:48.750 ,7,1,0.,12.0,0.,12.0,0.,12.0,0.,12.0
1979-07-16 18:48:00.750 ,4,1,0.,12.0,0.,12.0,0.,12.0,0.,12.0
1979-07-16 18:48:12.750 ,4,1,0.,12.0,0.,12.0,0.,12.0,0.,12.0
1979-07-16 18:48:24.750 ,0,1,0.,12.0,0.,12.0,0.,12.0,0.,12.0
1979-07-16 18:48:36.750 ,0,1,0.,12.0,0.,12.0,0.,12.0,0.,12.0
1979-07-16 18:48:48.750 ,3,1,0.,12.0,0.,12.0,0.,12.0,0.,12.0
1979-07-16 18:49:00.750 ,3,1,0.,12.0,0.,12.0,0.,12.0,0.,12.0
1979-07-16 18:49:12.750 ,7,1,0.,12.0,0.,12.0,0.,12.0,0.,12.0
1979-07-16 18:49:24.750 ,7,1,0.,12.0,0.,12.0,0.,12.0,0.,12.0
1979-07-16 18:49:36.750 ,4,1,0.,12.0,0.,12.0,0.,12.0,0.,12.0
1979-07-16 18:49:48.750 ,4,1,0.,12.0,0.,12.0,0.,12.0,0.,12.0
1979-07-16 18:50:00.750 ,0,1,0.,12.0,0.,12.0,0.,12.0,0.,12.0
1979-07-16 18:50:12.750 ,0,1,0.,12.0,0.,12.0,0.,12.0,0.,12.0
1979-07-16 18:50:24.750 ,3,1,0.,12.0,0.,12.0,0.,12.0,0.,12.0
1979-07-16 18:50:36.750 ,3,1,0.,12.0,0.,12.0,0.,12.0,0.,12.0
1979-07-16 18:50:48.750 ,7,1,0.,12.0,0.,12.0,0.,12.0,0.,12.0
1979-07-16 18:51:00.750 ,7,1,0.,12.0,0.,12.0,0.,12.0,0.,12.0
1979-07-16 18:51:12.750 ,4,1,0.,12.0,0.,12.0,0.,12.0,0.,12.0
1979-07-16 18:51:24.750 ,4,1,0.,12.0,0.,12.0,0.,12.0,0.,12.0
1979-07-16 18:51:36.750 ,0,1,0.,12.0,0.,12.0,0.,12.0,0.,12.0
1979-07-16 18:51:48.750 ,0,1,0.,12.0,0.,12.0,0.,12.0,0.,12.0
1979-07-16 18:52:00.750 ,3,1,0.,12.0,0.,12.0,0.,12.0,0.,12.0
1979-07-16 18:52:12.750 ,3,1,0.,12.0,0.,12.0,0.,12.0,0.,12.0
1979-07-16 18:52:24.750 ,7,1,0.,12.0,0.,12.0,0.,12.0,0.,12.0
1979-07-16 18:52:36.750 ,7,1,0.,12.0,0.,12.0,0.,12.0,0.,12.0
1979-07-16 18:52:48.750 ,4,1,0.,12.0,0.,12.0,0.,12.0,0.,12.0
1979-07-16 18:53:00.750 ,4,1,0.,12.0,0.,12.0,0.,12.0,0.,12.0
1979-07-16 18:53:12.750 ,0,1,0.,12.0,0.,12.0,0.,12.0,0.,12.0
1979-07-16 18:53:24.750 ,0,1,0.,12.0,0.,12.0,0.,12.0,0.,12.0
1979-07-16 18:53:36.750 ,0,0,0.,12.0,0.,12.0,0.,12.0,0.,12.0
1979-07-16 18:53:48.750 ,0,0,0.,12.0,0.,12.0,0.,12.0,0.,12.0
1979-07-16 18:54:00.750 ,0,0,0.,12.0,0.,12.0,0.,12.0,0.,12.0
1979-07-16 18:54:12.750 ,0,0,,0,,0,,0,,0
1979-07-16 18:55:01.950 ,0,0,,0,,0,,0,,0
1979-07-16 18:55:13.950 ,0,0,0.,12.0,0.,12.0,0.,12.0,0.,12.0
1979-07-16 18:55:12.750 ,4,1,0.,12.0,0.,12.0,0.,12.0,0.,12.0
1979-07-16 18:55:24.750 ,4,1,0.,12.0,0.,12.0,0.,12.0,0.,12.0
1979-07-16 18:55:36.750 ,4,0,0.,12.0,0.,12.0,0.,12.0,0.,12.0
1979-07-16 18:55:48.750 ,4,0,0.,12.0,0.,12.0,0.,12.0,0.,12.0
1979-07-16 18:56:00.750 ,3,1,0.,12.0,0.,12.0,0.,12.0,0.,12.0
1979-07-16 18:56:12.750 ,3,1,0.,12.0,0.,12.0,0.,12.0,0.,12.0
1979-07-16 18:56:24.750 ,3,0,0.,12.0,0.,12.0,0.,12.0,0.,12.0
1979-07-16 18:56:36.750 ,3,0,0.,12.0,0.,12.0,0.,12.0,0.,12.0
1979-07-16 18:56:48.750 ,2,1,0.,12.0,0.,12.0,0.,12.0,0.,12.0
1979-07-16 18:57:00.750 ,2,1,0.,12.0,0.,12.0,0.,12.0,0.,12.0
1979-07-16 18:57:12.750 ,2,0,0.,12.0,0.,12.0,0.,12.0,0.,12.0
1979-07-16 18:57:24.750 ,2,0,0.,12.0,0.,12.0,0.,12.0,0.,12.0
1979-07-16 18:57:36.750 ,1,1,0.,12.0,0.,12.0,0.,12.0,0.,12.0
1979-07-16 18:57:48.750 ,1,1,0.,12.0,0.,12.0,0.,12.0,0.,12.0
1979-07-16 18:58:00.750 ,1,0,0.,12.0,0.,12.0,0.,12.0,0.,12.0
1979-07-16 18:58:12.750 ,1,0,0.,12.0,0.,12.0,0.,12.0,0.,12.0
1979-07-16 18:58:24.750 ,0,1,0.,12.0,0.,12.0,0.,12.0,0.,12.0
1979-07-16 18:58:36.750 ,0,1,0.,12.0,0.,12.0,0.,12.0,0.,12.0
1979-07-16 18:58:48.750 ,0,0,0.,12.0,0.,12.0,0.,12.0,0.,12.0
1979-07-16 18:59:00.750 ,0,0,0.,12.0,0.,12.0,0.,12.0,0.,12.0
1979-07-16 18:59:12.750 ,0,1,0.,12.0,0.,12.0,0.,12.0,0.,12.0
1979-07-16 18:59:24.750 ,0,1,0.,12.0,0.,12.0,0.,12.0,0.,12.0
1979-07-16 18:59:36.750 ,0,0,0.,12.0,0.,12.0,0.,12.0,0.,12.0
1979-07-16 18:59:48.750 ,0,0,0.,12.0,0.,12.0,0.,12.0,0.,12.0
1979-07-16 19:00:00.750 ,1,1,0.,12.0,0.,12.0,0.,12.0,0.,12.0
1979-07-16 19:00:12.750 ,1,1,0.,12.0,0.,12.0,0.,12.0,0.,12.0
1979-07-16 19:00:24.750 ,1,0,0.,12.0,0.,12.0,0.,12.0,0.,12.0
1979-07-16 19:00:36.750 ,1,0,0.,12.0,0.,12.0,0.,12.0,0.,12.0
1979-07-16 19:00:48.750 ,2,1,0.,12.0,0.,12.0,0.,12.0,0.,12.0
1979-07-16 19:01:00.750 ,2,1,0.,12.0,0.,12.0,0.,12.0,0.,12.0
1979-07-16 19:01:12.750 ,2,0,0.,12.0,0.,12.0,0.,12.0,0.,12.0
1979-07-16 19:01:24.750 ,2,0,0.,12.0,0.,12.0,0.,12.0,0.,12.0
1979-07-16 19:01:36.750 ,3,1,0.,12.0,0.,12.0,0.,12.0,0.,12.0
1979-07-16 19:01:48.750 ,3,1,0.,12.0,0.,12.0,0.,12.0,0.,12.0
1979-07-16 19:02:00.750 ,3,0,0.,12.0,0.,12.0,0.,12.0,0.,12.0
1979-07-16 19:02:12.750 ,3,0,0.,12.0,0.,12.0,0.,12.0,0.,12.0
1979-07-16 19:02:24.750 ,4,1,0.,12.0,0.,12.0,0.,12.0,0.,12.0
1979-07-16 19:02:36.750 ,4,1,0.,12.0,0.,12.0,0.,12.0,0.,12.0
1979-07-16 19:02:48.750 ,4,0,0.,12.0,0.,12.0,0.,12.0,0.,12.0
1979-07-16 19:03:00.750 ,4,0,0.,12.0,0.,12.0,0.,12.0,0.,12.0
1979-07-16 19:03:12.750 ,5,1,1.,12.0,0.,12.0,0.,12.0,0.,12.0
1979-07-16 19:03:24.750 ,5,1,0.,12.0,0.,12.0,0.,12.0,0.,12.0
1979-07-16 19:03:36.750 ,5,0,0.,12.0,0.,12.0,0.,12.0,0.,12.0
1979-07-16 19:03:48.750 ,5,0,0.,12.0,0.,12.0,0.,12.0,0.,12.0
1979-07-16 19:04:00.750 ,6,1,0.,12.0,0.,12.0,0.,12.0,0.,12.0
1979-07-16 19:04:12.750 ,6,1,0.,12.0,0.,12.0,0.,12.0,0.,12.0
1979-07-16 19:04:24.750 ,6,0,0.,12.0,0.,12.0,0.,12.0,0.,12.0
1979-07-16 19:04:36.750 ,6,0,0.,12.0,0.,12.0,0.,12.0,0.,12.0
1979-07-16 19:04:48.750 ,7,1,0.,12.0,0.,12.0,0.,12.0,0.,12.0
1979-07-16 19:05:00.750 ,7,1,0.,12.0,0.,12.0,0.,12.0,0.,12.0
1979-07-16 19:05:12.750 ,7,0,0.,12.0,0.,12.0,0.,12.0,0.,12.0
1979-07-16 19:05:24.750 ,7,0,0.,12.0,0.,12.0,0.,12.0,0.,12.0
1979-07-16 19:05:36.750 ,7,1,0.,12.0,0.,12.0,0.,12.0,0.,12.0
1979-07-16 19:05:48.750 ,7,1,0.,12.0,0.,12.0,0.,12.0,0.,12.0
1979-07-16 19:06:00.750 ,7,0,0.,12.0,0.,12.0,0.,12.0,0.,12.0
1979-07-16 19:06:12.750 ,7,0,0.,12.0,0.,12.0,0.,12.0,0.,12.0
1979-07-16 19:06:24.750 ,6,1,0.,12.0,0.,12.0,0.,12.0,0.,12.0
1979-07-16 19:06:36.750 ,6,1,0.,12.0,0.,12.0,0.,12.0,0.,12.0
1979-07-16 19:06:48.750 ,6,0,0.,12.0,0.,12.0,0.,12.0,0.,12.0
1979-07-16 19:07:00.750 ,6,0,0.,12.0,0.,12.0,0.,12.0,0.,12.0
1979-07-16 19:07:12.750 ,5,1,0.,12.0,0.,12.0,0.,12.0,0.,12.0
1979-07-16 19:07:24.750 ,5,1,0.,12.0,0.,12.0,0.,12.0,0.,12.0
1979-07-16 19:07:36.750 ,5,0,0.,12.0,0.,12.0,0.,12.0,0.,12.0
1979-07-16 19:07:48.750 ,5,0,0.,12.0,0.,12.0,0.,12.0,0.,12.0
1979-07-16 19:08:00.750 ,4,1,1.,12.0,0.,12.0,0.,12.0,0.,12.0
1979-07-16 19:08:12.750 ,4,1,0.,12.0,0.,12.0,0.,12.0,0.,12.0
1979-07-16 19:08:24.750 ,4,0,0.,12.0,0.,12.0,0.,12.0,0.,12.0
1979-07-16 19:08:36.750 ,4,0,0.,12.0,0.,12.0,0.,12.0,0.,12.0
1979-07-16 19:08:48.750 ,3,1,0.,12.0,0.,12.0,0.,12.0,0.,12.0
1979-07-16 19:09:00.750 ,3,1,0.,12.0,0.,12.0,0.,12.0,0.,12.0
1979-07-16 19:09:12.750 ,3,0,0.,12.0,0.,12.0,0.,12.0,0.,12.0
1979-07-16 19:09:24.750 ,3,0,0.,12.0,0.,12.0,0.,12.0,0.,12.0
1979-07-16 19:09:36.750 ,2,1,0.,12.0,0.,12.0,0.,12.0,0.,12.0
1979-07-16 19:09:48.750 ,2,1,0.,12.0,0.,12.0,0.,12.0,0.,12.0
1979-07-16 19:10:00.750 ,2,0,0.,12.0,0.,12.0,0.,12.0,0.,12.0
1979-07-16 19:10:12.750 ,2,0,0.,12.0,0.,12.0,0.,12.0,0.,12.0
1979-07-16 19:10:24.750 ,1,1,0.,12.0,0.,12.0,0.,12.0,0.,12.0
1979-07-16 19:10:36.750 ,1,1,0.,12.0,0.,12.0,0.,12.0,0.,12.0
1979-07-16 19:10:48.750 ,1,0,0.,12.0,0.,12.0,0.,12.0,0.,12.0
1979-07-16 19:11:00.750 ,1,0,0.,12.0,0.,12.0,0.,12.0,0.,12.0
1979-07-16 19:11:12.750 ,0,1,0.,12.0,0.,12.0,0.,12.0,0.,12.0
1979-07-16 19:11:24.750 ,0,1,0.,12.0,0.,12.0,0.,12.0,0.,12.0
1979-07-16 19:11:36.750 ,0,0,0.,12.0,0.,12.0,0.,12.0,0.,12.0
1979-07-16 19:11:48.750 ,0,0,0.,12.0,0.,12.0,0.,12.0,0.,12.0
1979-07-16 19:12:00.750 ,0,1,0.,12.0,0.,12.0,0.,12.0,0.,12.0
1979-07-16 19:12:12.750 ,0,1,0.,12.0,0.,12.0,0.,12.0,0.,12.0
1979-07-16 19:12:24.750 ,0,0,0.,12.0,0.,12.0,0.,12.0,0.,12.0
1979-07-16 19:12:36.750 ,0,0,0.,12.0,0.,12.0,0.,12.0,0.,12.0
1979-07-16 19:12:48.750 ,1,1,0.,12.0,0.,12.0,0.,12.0,0.,12.0
1979-07-16 19:13:00.750 ,1,1,0.,12.0,0.,12.0,0.,12.0,0.,12.0
1979-07-16 19:13:12.750 ,1,0,0.,12.0,0.,12.0,0.,12.0,0.,12.0
1979-07-16 19:13:24.750 ,1,0,0.,12.0,0.,12.0,0.,12.0,0.,12.0
1979-07-16 19:13:36.750 ,2,1,0.,12.0,0.,12.0,0.,12.0,0.,12.0
1979-07-16 19:13:48.750 ,2,1,0.,12.0,0.,12.0,0.,12.0,0.,12.0
1979-07-16 19:14:00.750 ,2,0,0.,12.0,0.,12.0,0.,12.0,0.,12.0
1979-07-16 19:14:12.750 ,2,0,0.,12.0,0.,12.0,0.,12.0,0.,12.0
1979-07-16 19:14:24.750 ,3,1,0.,12.0,0.,12.0,0.,12.0,0.,12.0
1979-07-16 19:14:36.750 ,3,1,0.,12.0,0.,12.0,0.,12.0,0.,12.0
1979-07-16 19:14:48.750 ,3,0,0.,12.0,0.,12.0,0.,12.0,0.,12.0
1979-07-16 19:15:00.750 ,3,0,0.,12.0,0.,12.0,0.,12.0,0.,12.0
1979-07-16 19:15:12.750 ,4,1,0.,12.0,0.,12.0,0.,12.0,0.,12.0
1979-07-16 19:15:24.750 ,4,1,0.,12.0,0.,12.0,0.,12.0,0.,12.0
1979-07-16 19:15:36.750 ,4,0,0.,12.0,0.,12.0,0.,12.0,0.,12.0
1979-07-16 19:15:48.750 ,4,0,0.,12.0,0.,12.0,0.,12.0,0.,12.0
1979-07-16 19:16:00.750 ,5,1,0.,12.0,0.,12.0,0.,12.0,0.,12.0
1979-07-16 19:16:12.750 ,5,1,0.,12.0,0.,12.0,0.,12.0,0.,12.0
1979-07-16 19:16:24.750 ,5,0,0.,12.0,0.,12.0,0.,12.0,0.,12.0
1979-07-16 19:16:36.750 ,5,0,0.,12.0,0.,12.0,0.,12.0,0.,12.0
1979-07-16 19:16:48.750 ,6,1,0.,12.0,0.,12.0,0.,12.0,0.,12.0
1979-07-16 19:17:00.750 ,6,1,0.,12.0,0.,12.0,0.,12.0,0.,12.0
1979-07-16 19:17:12.750 ,6,0,0.,12.0,0.,12.0,0.,12.0,0.,12.0
1979-07-16 19:17:24.750 ,6,0,0.,12.0,0.,12.0,0.,12.0,0.,12.0
1979-07-16 19:17:36.750 ,7,1,0.,12.0,0.,12.0,0.,12.0,0.,12.0
1979-07-16 19:17:48.750 ,7,1,0.,12.0,0.,12.0,0.,12.0,0.,12.0
1979-07-16 19:18:00.750 ,7,0,0.,12.0,0.,12.0,0.,12.0,0.,12.0
1979-07-16 19:18:12.750 ,7,0,0.,12.0,0.,12.0,0.,12.0,0.,12.0
1979-07-16 19:18:24.750 ,7,1,0.,12.0,0.,12.0,0.,12.0,0.,12.0
1979-07-16 19:18:36.750 ,7,1,0.,12.0,0.,12.0,0.,12.0,0.,12.0
1979-07-16 19:18:48.750 ,7,0,0.,12.0,0.,12.0,0.,12.0,0.,12.0
1979-07-16 19:19:00.750 ,7,0,0.,12.0,0.,12.0,0.,12.0,0.,12.0
1979-07-16 19:19:12.750 ,6,1,0.,12.0,0.,12.0,0.,12.0,0.,12.0
1979-07-16 19:19:24.750 ,6,1,0.,12.0,0.,12.0,0.,12.0,0.,12.0
1979-07-16 19:19:36.750 ,6,0,0.,12.0,0.,12.0,0.,12.0,0.,12.0
1979-07-16 19:19:48.750 ,6,0,0.,12.0,0.,12.0,0.,12.0,0.,12.0
1979-07-16 19:20:00.750 ,5,1,0.,12.0,0.,12.0,0.,12.0,0.,12.0